Wind_Speed
8 7 6 6 5 4 4 4 4 4 6 7 7 7 6 5 5 5 4 5 3 4 4 3 3 3 3 4 4 5 6 6 6
11 10 8 8 7 7 6 5 5 4 4 5 5 5 5 6 5 7 6 5 4 5 5 5 5 5 5 6 6 6 6 7 7
13 13 12 10 10 8 8 8 7 5 3 4 5 5 6 6 6 7 7 6 7 7 7 8 8 8 8 8 8 8 8 8 7
16 15 14 14 13 12 10 10 9 7 5 5 5 6 6 6 6 8 9 8 8 8 8 8 9 9 10 10 10 10 10 9 9
20 18 17 17 16 14 13 11 10 10 8 7 6 7 7 7 7 7 9 10 10 10 10 10 10 10 10 11 11 11 11 11 10
23 21 20 20 19 17 14 13 12 11 11 10 9 9 9 7 8 8 9 10 11 11 11 12 12 12 12 12 12 11 12 12 12
25 23 22 22 21 19 17 16 16 14 13 13 13 13 12 11 10 9 9 11 11 12 13 13 14 14 14 14 14 13 13 13 13
27 27 26 24 23 21 20 18 18 18 19 17 16 16 15 15 14 12 12 12 13 13 13 14 14 15 16 16 16 16 15 15 14
28 28 27 25 24 23 23 20 20 20 21 21 19 18 18 18 18 17 16 15 16 16 14 15 15 15 16 16 16 17 17 16 16
31 28 27 26 24 22 22 20 21 21 21 22 22 21 21 21 22 21 20 18 19 18 20 18 17 17 18 18 18 17 17 17 17
32 30 29 29 27 25 23 24 23 22 22 22 22 22 23 23 24 24 25 23 21 22 22 22 21 20 19 19 19 19 19 19 19
35 33 31 28 25 24 24 22 23 24 24 22 23 25 25 24 25 26 26 26 27 26 25 25 25 24 23 21 20 20 21 22 21
39 35 33 30 27 25 25 25 27 27 27 25 24 23 24 26 28 29 28 27 28 27 28 26 27 28 27 25 24 22 22 23 23
36 36 34 33 29 26 26 27 26 24 24 26 27 27 28 30 32 33 33 33 34 31 29 30 29 30 31 30 27 26 26 25 24
37 38 33 32 29 28 27 26 26 26 27 27 28 29 30 32 33 33 34 34 34 34 33 33 33 32 30 32 33 31 30 31 32
39 38 33 31 30 31 30 29 29 29 29 30 29 31 33 34 33 31 31 33 34 37 37 36 38 34 34 34 37 34 37 37 39
39 40 36 35 32 32 32 31 31 30 30 32 34 37 36 35 34 35 35 35 35 37 36 35 34 34 34 34 34 34 38 37 32
47 37 43 35 34 36 32 33 33 32 31 31 34 38 42 42 40 40 41 41 40 40 37 37 36 36 32 29 31 34 34 32 30
39 39 39 38 32 29 36 34 35 35 33 34 36 39 43 46 51 47 45 45 45 42 39 36 34 34 35 32 29 28 34 33 33
37 38 42 33 31 35 34 35 36 35 37 38 40 43 44 45 48 51 48 44 38 36 32 34 36 35 34 36 34 29 31 34 36
Wind_Direction
246 252 256 254 268 274 288 307 313 276 249 243 250 248 250 228 231 248 239 241 242 247 257 276 293 294 290 288 286 292 298 301 305
241 251 252 259 268 274 273 283 299 310 284 269 256 255 251 245 233 253 263 270 272 278 286 290 292 295 298 298 297 297 296 300 302
247 245 249 251 254 262 271 275 283 294 290 276 267 264 263 265 265 266 266 274 281 288 294 297 300 306 306 304 303 303 305 305 304
250 248 252 252 249 256 259 257 267 277 281 278 276 272 267 268 269 274 278 279 281 283 287 294 300 303 304 305 307 307 309 308 304
255 254 252 250 253 255 254 249 252 259 265 270 278 280 280 278 271 270 274 277 278 281 285 288 290 292 295 298 301 304 304 304 302
252 249 251 253 250 252 255 252 248 254 263 262 263 269 275 280 278 273 273 278 280 280 282 284 284 287 289 290 293 296 298 297 298
253 252 249 245 249 253 251 253 256 253 247 254 261 264 268 272 275 277 278 280 284 286 286 286 286 286 285 286 288 288 288 290 291
247 252 252 252 252 252 253 252 254 255 252 246 247 254 264 269 273 276 279 283 285 284 287 289 290 291 292 290 289 288 288 287 285
252 252 250 250 254 253 253 253 252 254 256 254 253 255 258 265 271 273 276 277 282 286 286 289 291 291 291 290 289 289 287 284 281
252 249 250 254 249 248 251 254 256 256 254 256 258 260 261 262 266 268 269 270 277 279 286 286 288 292 292 293 291 288 285 281 278
247 249 251 250 250 249 248 251 254 254 257 261 263 263 261 263 264 264 268 267 268 269 274 282 282 282 284 287 289 287 282 276 270
246 247 249 249 245 250 253 251 255 256 256 262 263 262 265 267 268 266 265 266 267 268 269 271 276 278 279 280 283 285 283 279 275
246 248 247 245 248 253 256 255 257 258 259 257 256 256 258 263 267 268 269 269 268 268 263 266 270 271 273 275 279 281 283 280 275
240 245 243 244 248 254 258 259 259 260 264 265 264 263 261 262 265 270 272 273 270 269 266 262 261 265 264 266 271 273 276 278 274
242 241 239 240 245 254 254 254 260 267 270 270 271 274 275 273 271 272 271 271 275 273 266 268 266 260 260 259 266 265 272 272 265
241 242 239 244 245 250 249 252 259 266 266 268 274 275 277 278 280 280 279 276 275 274 274 270 269 263 262 257 258 260 267 273 273
236 237 240 234 242 251 248 252 260 264 267 274 280 279 275 276 277 276 277 279 278 275 275 275 271 269 267 265 259 260 266 269 268
236 241 234 234 239 241 249 253 259 262 264 274 280 283 283 284 276 272 272 276 280 280 277 272 271 273 263 266 265 262 260 262 255
232 239 242 230 232 234 241 251 257 262 266 270 277 281 286 287 286 282 278 278 280 280 275 271 268 272 262 261 262 260 259 253 252
231 232 236 233 232 234 246 252 255 262 270 276 280 283 283 283 281 281 281 280 278 277 273 267 271 264 261 261 256 258 254 250 251
Height
3168 3167 3167 3167 3167 3167 3166 3166 3166 3164 3163 3163 3164 3164 3164 3165 3165 3164 3164 3164 3163 3163 3163 3163 3162 3162 3162 3161 3160 3160 3159 3158 3158
3166 3166 3166 3166 3166 3165 3165 3165 3165 3164 3163 3162 3162 3163 3163 3163 3164 3164 3164 3163 3163 3163 3163 3163 3162 3162 3161 3161 3159 3159 3158 3157 3157
3164 3164 3164 3164 3164 3164 3164 3164 3164 3163 3163 3162 3161 3161 3162 3162 3162 3162 3162 3163 3163 3163 3163 3162 3162 3161 3161 3160 3159 3158 3157 3157 3156
3162 3162 3162 3162 3161 3161 3161 3161 3162 3162 3161 3161 3160 3160 3160 3161 3161 3161 3160 3161 3161 3161 3161 3161 3160 3160 3159 3159 3158 3158 3157 3156 3155
3158 3159 3159 3159 3159 3159 3159 3159 3159 3159 3159 3159 3159 3158 3159 3159 3159 3159 3158 3159 3159 3159 3159 3159 3158 3157 3157 3156 3156 3156 3155 3154 3153
3154 3155 3155 3156 3156 3156 3157 3157 3157 3157 3157 3157 3157 3157 3156 3157 3157 3157 3157 3157 3157 3157 3157 3157 3156 3155 3155 3154 3153 3153 3153 3152 3152
3150 3151 3151 3151 3152 3153 3153 3153 3154 3154 3154 3154 3155 3154 3154 3154 3155 3155 3155 3155 3155 3155 3155 3154 3154 3153 3153 3152 3151 3151 3150 3150 3149
3145 3145 3147 3148 3148 3149 3149 3149 3150 3150 3151 3150 3150 3151 3152 3152 3152 3153 3153 3153 3152 3152 3152 3152 3152 3151 3151 3151 3150 3149 3148 3147 3146
3140 3141 3142 3143 3144 3144 3144 3145 3145 3145 3146 3147 3147 3147 3148 3148 3148 3149 3150 3150 3150 3150 3149 3149 3148 3148 3148 3147 3147 3146 3145 3145 3144
3134 3136 3137 3138 3138 3139 3139 3140 3140 3141 3141 3142 3142 3143 3143 3144 3144 3145 3145 3146 3146 3146 3146 3145 3145 3145 3144 3144 3144 3142 3142 3141 3140
3126 3129 3131 3132 3133 3133 3134 3134 3134 3136 3136 3137 3137 3138 3138 3138 3139 3139 3140 3140 3140 3140 3141 3141 3141 3140 3140 3139 3139 3139 3138 3137 3136
3119 3122 3124 3126 3127 3127 3128 3129 3130 3131 3130 3131 3131 3131 3132 3133 3133 3134 3134 3134 3134 3135 3135 3135 3136 3136 3135 3135 3135 3134 3134 3133 3133
3112 3115 3118 3120 3120 3121 3122 3123 3124 3125 3126 3127 3127 3126 3126 3126 3126 3126 3127 3127 3128 3128 3128 3128 3129 3129 3129 3129 3129 3129 3129 3128 3128
3103 3106 3109 3111 3113 3114 3116 3116 3118 3118 3119 3120 3120 3120 3120 3120 3119 3120 3120 3119 3119 3120 3121 3120 3120 3121 3122 3122 3122 3123 3123 3123 3123
3094 3097 3100 3103 3106 3108 3109 3111 3111 3113 3113 3113 3113 3113 3113 3112 3112 3113 3113 3113 3113 3113 3113 3113 3113 3113 3112 3114 3115 3115 3116 3116 3116
3086 3090 3093 3094 3098 3100 3103 3105 3106 3107 3108 3106 3107 3105 3105 3105 3105 3105 3105 3104 3105 3104 3104 3104 3104 3105 3105 3104 3106 3107 3108 3107 3107
3077 3081 3084 3088 3091 3094 3097 3098 3099 3101 3101 3099 3098 3096 3098 3099 3099 3097 3097 3096 3096 3094 3095 3095 3095 3095 3096 3096 3098 3098 3098 3099 3099
3067 3071 3077 3079 3083 3087 3089 3090 3092 3094 3095 3094 3092 3089 3086 3087 3089 3089 3088 3088 3087 3086 3085 3085 3086 3086 3086 3087 3088 3088 3089 3090 3090
3059 3063 3064 3069 3072 3076 3081 3083 3084 3085 3087 3087 3086 3084 3081 3078 3073 3076 3077 3077 3077 3077 3076 3075 3075 3074 3076 3078 3078 3079 3080 3080 3081
3051 3055 3058 3059 3062 3068 3073 3076 3077 3078 3078 3078 3078 3077 3074 3071 3066 3061 3063 3063 3065 3065 3065 3064 3064 3065 3065 3066 3068 3069 3069 3070 3071